Погода в Беллуно

Италия     46°08′27″N   12°12′44″E
темп.,
°C
ветер,
м/с
пор.,
м/с
влажн.,
%
обл.,
%
осадки,
мм/ч
давл.,
гПа
погр.,
м
17 мая, пн
пн1723:00+7ю1199100 0.8 100694
02:00+8ююв11100100 1.9 1003120
05:00+8св1298100 3.5 1001171
08:00+4с3597100 15.9 1006302
11:00+10юв026743 2.5 1005873
14:00+12ю346634 3.4 10061432
17:00+10ю337984 2.3 1006482
20:00+8вюв119438 3.9 100936
18 мая, вт
вт1823:00+4с33914 1.4 101251
02:00+3с33892 1.7 101450
05:00+2с34871 0.0 101565
08:00+7с237054 0.0 1014160
11:00+13ю32465 0.0 10121323
14:00+12ю336655 0.9 10121120
17:00+10ю3384100 2.9 1011649
20:00+8ююз129490 5.0 101163
19 мая, ср
ср1923:00+6с3595100 2.9 1012216
02:00+4с4693100 9.1 1014300
05:00+4с3592100 0.4 1014157
08:00+6с23770 0.5 1015301
11:00+11ю144321 0.1 10132038
14:00+11ю336362 1.3 10131467
17:00+10ю327227 2.8 1013886
20:00+7юв1184100 6.6 101516
20 мая, чт
чт2023:00+3с2293100 1.8 101841
02:00+2с3489100 1.9 101861
05:00+2с3487100 0.0 101874
08:00+6с2380100 0.0 1018155
11:00+11ссз1249100 0.1 10171010
14:00+13зюз1437100 0.6 10162533
17:00+10ю126456 1.8 1017876
20:00+8ссз22730 2.8 102038
21 мая, пт
пт2123:00+3с34820 0.0 102563
02:00+2с34821 0.0 102667
05:00+1с33770 0.0 102649
08:00+8ссв115183 0.0 1023178
11:00+12ю3248100 0.0 10211208
14:00+13ю325289 0.0 10201591
17:00+12ю3267100 0.1 10191028
20:00+9ю1192100 0.2 1019100